Weather History for KCKC - December, 2013

Change the Weather History Date:

Wednesday, December 4, 2013

  Actual Average Record
Temperature  
Mean Temperature 16 °F -  
Max Temperature 21 °F 25 °F 48 °F (2001)
Min Temperature 12 °F 13 °F -5 °F (2006)
Degree Days  
Heating Degree Days 48    
Moisture  
Dew Point 13 °F    
Average Humidity 84    
Maximum Humidity 86    
Minimum Humidity 79    
Precipitation  
Precipitation 0.05 in - - ()
Sea Level Pressure  
Sea Level Pressure 29.67 in    
Wind  
Wind Speed 16 mph (NNE)    
Max Wind Speed 24 mph    
Max Gust Speed 36 mph    
Visibility 3 miles    
Events Snow    
Averages and records for this station are not official NWS values.
T = Trace of Precipitation, MM = Missing Value Source: NWS Daily Summary

Daily Weather History Graph

Daily Weather History Graph

Search for Another Location

Airport or City:

Trip Planner

Search our weather history database for the weather conditions in past years. The results will help you decide how hot, cold, wet, or windy it might be!

Date:

Astronomy

Dec. 04, 2013 Rise Set
Actual Time 7:33 AM CST 4:09 PM CST
Civil Twilight 6:57 AM CST 4:45 PM CST
Nautical Twilight 6:18 AM CST 5:24 PM CST
Astronomical Twilight 5:41 AM CST 6:02 PM CST
Moon 8:58 AM CST (12/4) 6:24 PM CST (12/4)
Length of Visible Light 9h 47m
Length of Day
8h 36m
Waxing Crescent, 4% of the Moon is Illuminated
Dec 4
Waxing Crescent
Dec 9
First Quarter
Dec 17
Full
Dec 25
Last Quarter
Jan 1
New

Hourly Weather History & Observations

Time (CST) Temp. Windchill Dew Point Humidity Pressure Visibility Wind Dir Wind Speed Gust Speed Precip Events Conditions
12:14 AM 12.2 °F -3.1 °F 8.6 °F 85% 29.94 in 1.5 mi North 13.8 mph 23.0 mph N/A Snow Light Snow
12:33 AM 12.2 °F -3.7 °F 8.6 °F 85% 29.93 in 2.0 mi NNE 15.0 mph 23.0 mph N/A Snow Light Snow
12:53 AM 12.2 °F -4.8 °F 8.6 °F 85% 29.91 in 2.5 mi NNE 17.3 mph 20.7 mph N/A Snow Light Snow
1:14 AM 12.2 °F -3.1 °F 8.6 °F 85% 29.92 in 3.0 mi NNE 13.8 mph 21.9 mph N/A Snow Light Snow
1:33 AM 12.2 °F -1.8 °F 8.6 °F 85% 29.92 in 2.0 mi North 11.5 mph 19.6 mph N/A Snow Light Snow
1:53 AM 12.2 °F -3.7 °F 8.6 °F 85% 29.93 in 2.5 mi North 15.0 mph 19.6 mph N/A Snow Light Snow
2:14 AM 12.2 °F -3.1 °F 8.6 °F 85% 29.93 in 4.0 mi North 13.8 mph - N/A Snow Light Snow
2:33 AM 12.2 °F -3.7 °F 8.6 °F 85% 29.92 in 4.0 mi North 15.0 mph 20.7 mph N/A Snow Light Snow
2:53 AM 12.2 °F -3.7 °F 8.6 °F 85% 29.91 in 4.0 mi North 15.0 mph - N/A Snow Light Snow
3:13 AM 12.2 °F -3.1 °F 8.6 °F 85% 29.91 in 5.0 mi NNE 13.8 mph 20.7 mph N/A Snow Light Snow
3:33 AM 12.2 °F -2.5 °F 8.6 °F 85% 29.91 in 7.0 mi NNE 12.7 mph 20.7 mph N/A Snow Light Snow
3:54 AM 12.2 °F -3.1 °F 8.6 °F 85% 29.89 in 10.0 mi North 13.8 mph - N/A   Overcast
4:13 AM 12.2 °F -3.1 °F 8.6 °F 85% 29.89 in 10.0 mi NNE 13.8 mph - N/A   Overcast
4:34 AM 12.2 °F -3.7 °F 8.6 °F 85% 29.89 in 10.0 mi NNE 15.0 mph - N/A   Overcast
4:53 AM 14.0 °F -0.8 °F 8.6 °F 79% 29.89 in 10.0 mi NNE 13.8 mph 18.4 mph N/A   Overcast
5:14 AM 14.0 °F 0.5 °F 8.6 °F 79% 29.89 in 10.0 mi NNE 11.5 mph 20.7 mph N/A   Overcast
5:33 AM 14.0 °F -2.5 °F 10.4 °F 86% 29.88 in 10.0 mi NNE 17.3 mph 20.7 mph N/A   Overcast
5:53 AM 14.0 °F -2.5 °F 10.4 °F 86% 29.88 in 10.0 mi NNE 17.3 mph 21.9 mph N/A   Overcast
6:14 AM 14.0 °F -2.0 °F 10.4 °F 86% 29.87 in 10.0 mi NNE 16.1 mph 20.7 mph N/A   Overcast
6:33 AM 14.0 °F -0.8 °F 10.4 °F 86% 29.88 in 7.0 mi NNE 13.8 mph 21.9 mph N/A   Overcast
6:53 AM 14.0 °F -2.5 °F 10.4 °F 86% 29.88 in 10.0 mi NNE 17.3 mph - N/A   Overcast
7:14 AM 14.0 °F -1.4 °F 10.4 °F 86% 29.87 in 10.0 mi NNE 15.0 mph 19.6 mph N/A   Overcast
7:34 AM 14.0 °F -0.2 °F 10.4 °F 86% 29.85 in 7.0 mi NNE 12.7 mph 23.0 mph N/A   Overcast
7:53 AM 14.0 °F -2.5 °F 10.4 °F 86% 29.85 in 5.0 mi NNE 17.3 mph 21.9 mph N/A   Overcast
8:13 AM 15.8 °F 1.4 °F 10.4 °F 79% 29.84 in 4.0 mi NNE 13.8 mph 21.9 mph N/A   Overcast
8:34 AM 15.8 °F -0.2 °F 10.4 °F 79% 29.84 in 3.0 mi NNE 17.3 mph 24.2 mph N/A   Overcast
8:53 AM 15.8 °F 0.9 °F 10.4 °F 79% 29.84 in 2.5 mi NNE 15.0 mph 19.6 mph N/A   Overcast
9:13 AM 15.8 °F 0.9 °F 12.2 °F 86% 29.85 in 3.0 mi NNE 15.0 mph 19.6 mph N/A Snow Light Snow
9:34 AM 15.8 °F 0.3 °F 12.2 °F 86% 29.84 in 1.5 mi NNE 16.1 mph - N/A Snow Light Snow
9:53 AM 15.8 °F 0.9 °F 12.2 °F 86% 29.82 in 1.0 mi NNE 15.0 mph 21.9 mph N/A Snow Light Snow
10:14 AM 15.8 °F 0.3 °F 12.2 °F 86% 29.81 in 1.2 mi NNE 16.1 mph 24.2 mph N/A Snow Light Snow
10:34 AM 15.8 °F -0.2 °F 12.2 °F 86% 29.79 in 1.2 mi NE 17.3 mph 20.7 mph N/A Snow Light Snow
10:53 AM 17.6 °F 3.2 °F 12.2 °F 79% 29.79 in 1.8 mi NNE 15.0 mph 21.9 mph N/A Snow Light Snow
11:14 AM 17.6 °F 2.7 °F 14.0 °F 86% 29.77 in 3.0 mi NE 16.1 mph 21.9 mph N/A Snow Light Snow
11:34 AM 17.6 °F 3.2 °F 14.0 °F 86% 29.77 in 2.0 mi NE 15.0 mph 23.0 mph N/A Snow Light Snow
11:53 AM 17.6 °F 2.7 °F 14.0 °F 86% 29.75 in 1.8 mi NE 16.1 mph 23.0 mph N/A Snow Light Snow
12:13 PM 17.6 °F 2.7 °F 14.0 °F 86% 29.73 in 1.8 mi NE 16.1 mph 21.9 mph N/A Snow Light Snow
12:34 PM 19.4 °F 5.5 °F 14.0 °F 80% 29.71 in 2.0 mi NNE 15.0 mph 24.2 mph N/A Snow Light Snow
12:54 PM 19.4 °F 5.5 °F 14.0 °F 80% 29.70 in 2.5 mi NNE 15.0 mph 21.9 mph N/A Snow Light Snow
1:13 PM 19.4 °F 4.1 °F 14.0 °F 80% 29.68 in 2.5 mi NNE 18.4 mph - N/A Snow Light Snow
1:34 PM 19.4 °F 5.5 °F 14.0 °F 80% 29.65 in 2.0 mi NE 15.0 mph 25.3 mph N/A Snow Light Snow
1:53 PM 19.4 °F 4.5 °F 15.8 °F 86% 29.63 in 1.2 mi NNE 17.3 mph 24.2 mph N/A Snow Light Snow
2:13 PM 19.4 °F 6.0 °F 15.8 °F 86% 29.60 in 0.8 mi NNE 13.8 mph 24.2 mph 0.01 in Snow Light Snow
2:34 PM 19.4 °F 3.6 °F 15.8 °F 86% 29.58 in 0.8 mi NE 19.6 mph 25.3 mph 0.01 in Snow Light Snow
2:53 PM 21.2 °F 6.0 °F 17.6 °F 86% 29.57 in 0.5 mi NE 19.6 mph 26.5 mph 0.01 in Snow Light Snow
3:14 PM 21.2 °F 4.5 °F 17.6 °F 86% 29.56 in 0.5 mi NE 24.2 mph 32.2 mph N/A Snow Snow
3:34 PM 21.2 °F 5.2 °F 17.6 °F 86% 29.55 in 0.2 mi NE 21.9 mph 35.7 mph N/A Snow Snow
3:53 PM 21.2 °F 4.9 °F 17.6 °F 86% 29.55 in 0.2 mi NE 23.0 mph 33.4 mph N/A Snow Snow
4:14 PM 21.2 °F 5.2 °F 17.6 °F 86% 29.54 in 0.5 mi NE 21.9 mph 26.5 mph N/A Snow Snow
4:34 PM 21.2 °F 5.6 °F 17.6 °F 86% 29.53 in 0.2 mi NE 20.7 mph 29.9 mph 0.01 in Snow Snow
4:53 PM 21.2 °F 5.2 °F 17.6 °F 86% 29.52 in 0.2 mi NE 21.9 mph 31.1 mph 0.01 in Snow Snow
5:14 PM 21.2 °F 4.9 °F 17.6 °F 86% 29.51 in 0.5 mi NE 23.0 mph 29.9 mph N/A Snow Snow
5:33 PM 21.2 °F 5.2 °F 17.6 °F 86% 29.49 in 0.2 mi NE 21.9 mph 32.2 mph N/A Snow Snow
5:53 PM 21.2 °F 7.3 °F 17.6 °F 86% 29.48 in 0.2 mi NNE 16.1 mph 21.9 mph N/A Snow Snow
6:14 PM 19.4 °F 5.5 °F 15.8 °F 86% 29.47 in 0.2 mi NNE 15.0 mph 20.7 mph N/A Snow Heavy Snow
6:33 PM 19.4 °F 4.1 °F 15.8 °F 86% 29.45 in 0.2 mi NE 18.4 mph 25.3 mph N/A Snow Snow
6:54 PM 19.4 °F 3.6 °F 15.8 °F 86% 29.43 in 0.5 mi NE 19.6 mph 26.5 mph N/A Snow Snow
7:13 PM 19.4 °F 3.6 °F 15.8 °F 86% 29.41 in 0.5 mi NE 19.6 mph 25.3 mph N/A Snow Light Snow
7:33 PM 19.4 °F 3.6 °F 15.8 °F 86% 29.39 in 0.5 mi NE 19.6 mph 27.6 mph N/A Snow Snow
7:54 PM 19.4 °F 2.8 °F 15.8 °F 86% 29.38 in 0.5 mi ENE 21.9 mph 28.8 mph 0.01 in Snow Snow
8:13 PM 19.4 °F 2.8 °F 15.8 °F 86% 29.35 in 0.5 mi NE 21.9 mph 28.8 mph N/A Snow Light Snow
8:33 PM 19.4 °F 3.6 °F 15.8 °F 86% 29.32 in 0.5 mi NE 19.6 mph 28.8 mph N/A Snow Snow
8:54 PM 19.4 °F 4.5 °F 15.8 °F 86% 29.31 in 0.8 mi NE 17.3 mph 24.2 mph N/A Snow Light Snow
9:13 PM 21.2 °F 6.0 °F 15.8 °F 80% 29.31 in 1.2 mi NE 19.6 mph 25.3 mph N/A Snow Light Snow
9:34 PM 21.2 °F 8.9 °F 17.6 °F 86% 29.31 in 2.5 mi NNE 12.7 mph 20.7 mph N/A Snow Light Snow
9:54 PM 21.2 °F 9.5 °F 15.8 °F 80% 29.31 in 2.5 mi NNE 11.5 mph 20.7 mph N/A Snow Light Snow
10:13 PM 21.2 °F 8.9 °F 15.8 °F 80% 29.30 in 2.5 mi North 12.7 mph 19.6 mph N/A Snow Light Snow
10:34 PM 19.4 °F 6.0 °F 15.8 °F 86% 29.30 in 2.0 mi North 13.8 mph - N/A Snow Light Snow
10:53 PM 19.4 °F 6.0 °F 15.8 °F 86% 29.30 in 2.0 mi North 13.8 mph - 0.01 in Snow Light Snow
11:13 PM 19.4 °F 8.6 °F 14.0 °F 80% 29.29 in 1.2 mi North 9.2 mph - N/A Snow Light Snow
11:34 PM 17.6 °F 2.7 °F 12.2 °F 79% 29.27 in 1.5 mi North 16.1 mph - 0.01 in Snow Light Snow
11:53 PM 17.6 °F 3.7 °F 12.2 °F 79% 29.28 in 2.0 mi NNW 13.8 mph - 0.01 in Snow Light Snow